Preview of NWS' New Version of Forecast
This preview is not operational and should not be used for support decisions.

Regional Weather Roundup (RWR)

Issued by National Weather Service (NWS)

                            
000
ASUS46 KPQR 170710
RWROR 

OREGON REGIONAL WEATHER ROUNDUP
NATIONAL WEATHER SERVICE PORTLAND OR
1200 AM PDT WED APR 17 2019

NOTE: "FAIR" INDICATES FEW OR NO CLOUDS BELOW 12,000 FEET WITH
NO SIGNIFICANT WEATHER AND/OR OBSTRUCTIONS TO VISIBILITY.

ORZ001>013-170800-
NORTHWEST OREGON

  
CITY           SKY/WX    TMP DP  RH WIND       PRES   REMARKS
ASTORIA        LGT RAIN  49  46  90 SW8       30.17R                  
TILLAMOOK      RAIN      48  46  93 CALM      30.23S                  
NEWPORT        DRIZZLE   50  46  87 S6        30.27S                  
PORTLAND       LGT RAIN  51  47  86 SE5       30.21S                  
VANCOUVER WA   LGT RAIN  50  47  89 SE3       30.21R                  
SCAPPOOSE      LGT RAIN  51  48  89 CALM      30.19S                  
HILLSBORO      LGT RAIN  51  45  79 S6        30.20S                  
AURORA         LGT RAIN  50  47  89 S3        30.23R                  
MCMINNVILLE    LGT RAIN  49  47  93 S5        30.21S                  
SALEM          LGT RAIN  51  44  77 S6        30.22R                  
CORVALLIS      CLOUDY    51  46  83 CALM      30.25R                  
EUGENE         CLOUDY    51  45  79 MISG      30.25R                  
$$

ORZ021-028-170800-
SOUTHWEST OREGON

  
CITY           SKY/WX    TMP DP  RH WIND       PRES   REMARKS
NORTH BEND     LGT RAIN  50  48  93 S3        30.29R                  
BROOKINGS      PTCLDY    47  46  97 CALM      30.28R                  
ROSEBURG       MOCLDY    51  45  79 CALM      30.24S                  
SEXTON SUMMIT  MOCLDY    42  36  79 CALM      30.20S                  
GRANTS PASS    FAIR      48  43  81 CALM      30.25S                  
MEDFORD        CLEAR     50  41  71 N3        30.22R                  
$$

ORZ014>016-041-170800-
COLUMBIA GORGE

  
CITY           SKY/WX    TMP DP  RH WIND       PRES   REMARKS
TROUTDALE      LGT RAIN  52  46  80 SW5       30.21R                  
HOOD RIVER     CLOUDY    50  43  76 MISG      30.17R                  
THE DALLES     CLOUDY    54  42  64 NW20G26   30.14R                  
$$

ORZ029>031-041-044-049-050-061>064-502-503-505>511-170800-
EASTERN OREGON

  
CITY           SKY/WX    TMP DP  RH WIND       PRES   REMARKS
MADRAS         CLOUDY    50  36  57 SW6       30.17S                  
REDMOND        CLOUDY    49  36  61 CALM      30.15R                  
BEND           CLOUDY    48  34  57 S6        30.15S                  
PRINEVILLE     CLOUDY    46  36  66 MISG      30.16S                  
KLAMATH FALLS  CLEAR     35  32  88 CALM      30.20R                  
LAKEVIEW       CLEAR     32  30  92 N5        30.20R                  
HERMISTON      CLOUDY    56  42  59 SW13      30.10S                  
PENDLETON      CLOUDY    51  41  68 SW8       30.11R                  
JOHN DAY       PTCLDY    42  35  77 CALM      30.15R                  
MEACHAM        LGT RAIN  41  36  82 CALM      30.13R                  
LA GRANDE      NOT AVBL                                               
BAKER CITY     MOCLDY    37  33  85 SE5       30.14R                  
BURNS          CLEAR     35  30  82 N10       30.13R WCI  27          
ROME             N/A     39  33  79 SE10      30.13R                  
ONTARIO        CLEAR     45  37  73 W3        30.13R                  
$$